TimeCDT,TemperatureF,Dew PointF,Humidity,Sea Level PressureIn,VisibilityMPH,Wind Direction,Wind SpeedMPH,Gust SpeedMPH,PrecipitationIn,Events,Conditions,WindDirDegrees,DateUTC
12:54 AM,46.9,41.0,80,29.73,10.0,SE,6.9,-,N/A,,Clear,140,2012-10-21 05:54:00
1:54 AM,46.0,41.0,83,29.72,10.0,SE,8.1,-,N/A,,Clear,140,2012-10-21 06:54:00
2:54 AM,44.1,39.9,85,29.71,10.0,SSE,8.1,-,N/A,,Clear,160,2012-10-21 07:54:00
3:54 AM,45.0,39.9,82,29.70,10.0,SSE,9.2,-,N/A,,Clear,150,2012-10-21 08:54:00
4:54 AM,44.1,39.9,85,29.69,10.0,SSE,9.2,-,N/A,,Clear,160,2012-10-21 09:54:00
5:54 AM,46.0,41.0,83,29.70,10.0,SSE,11.5,-,N/A,,Clear,150,2012-10-21 10:54:00
6:54 AM,44.1,39.9,85,29.71,10.0,South,6.9,-,N/A,,Clear,170,2012-10-21 11:54:00
7:54 AM,41.0,37.9,89,29.73,10.0,South,5.8,-,N/A,,Clear,170,2012-10-21 12:54:00
8:54 AM,46.0,43.0,89,29.74,10.0,South,5.8,-,N/A,,Clear,190,2012-10-21 13:54:00
9:54 AM,55.0,46.9,74,29.78,10.0,Calm,Calm,-,N/A,,Clear,0,2012-10-21 14:54:00
10:54 AM,61.0,50.0,67,29.75,10.0,SSE,11.5,-,N/A,,Clear,160,2012-10-21 15:54:00
11:54 AM,69.1,53.1,57,29.74,10.0,South,12.7,-,N/A,,Clear,170,2012-10-21 16:54:00
12:54 PM,73.9,54.0,50,29.73,10.0,South,9.2,-,N/A,,Clear,170,2012-10-21 17:54:00
1:54 PM,78.1,55.9,46,29.72,10.0,SSE,6.9,-,N/A,,Clear,160,2012-10-21 18:54:00
2:54 PM,79.0,57.0,47,29.70,10.0,South,4.6,-,N/A,,Clear,170,2012-10-21 19:54:00
3:54 PM,80.1,57.9,47,29.69,10.0,SE,6.9,-,N/A,,Clear,130,2012-10-21 20:54:00
4:54 PM,80.1,57.9,47,29.70,10.0,SE,5.8,-,N/A,,Clear,130,2012-10-21 21:54:00
5:54 PM,80.1,57.9,47,29.70,9.0,Calm,Calm,-,N/A,,Clear,0,2012-10-21 22:54:00
6:54 PM,71.1,57.0,61,29.72,10.0,North,4.6,-,N/A,,Mostly Cloudy,10,2012-10-21 23:54:00
7:54 PM,69.1,57.9,68,29.74,9.0,NNW,6.9,-,N/A,,Overcast,340,2012-10-22 00:54:00
8:54 PM,66.0,48.0,52,29.75,10.0,North,12.7,-,N/A,,Scattered Clouds,10,2012-10-22 01:54:00
9:54 PM,63.0,48.0,58,29.78,10.0,NNW,8.1,-,N/A,,Mostly Cloudy,330,2012-10-22 02:54:00
10:54 PM,62.1,48.9,62,29.78,10.0,North,13.8,-,N/A,,Overcast,350,2012-10-22 03:54:00
11:54 PM,59.0,48.9,69,29.78,10.0,North,17.3,-,N/A,,Overcast,350,2012-10-22 04:54:00